www.pogodaiklimat.ru

Погода и климат >> Архив погоды >> Россия >> Владимирская область >> Владимир


АРХИВ ПОГОДЫ в Владимире

Время (UTC), дата Ветер
(напр.,м/с)
 
Видим.   Явления Облачность Т
(С)
Тd
(С)
f
(%)
Тe
(С)
Тes
(С)
Комфортность P
(гПа)
Po
(гПа)
Тmin
(С)
Tmax
(С)
R
(мм)
R24
(мм)
S
(см)
12 13.09 ЮЗ 6
{11}
10 км 8/4 600 м
[Cu hum Ac trans]
+24.0 +5.6 30 +24 +25 комфорт 1016.7 997.0
15 13.09 ЮЗ 3 10 км 8/4 600 м
[Sc Ci fib]
+20.4 +9.1 48 +22 +22 комфорт 1015.4 995.5 +24.5
18 13.09 ЮЗ 2 10 км 8/0
[Ac trans]
+15.1 +10.0 72 +15 +15 тепло 1015.2 994.9
21 13.09 Ю 2 10 км 9/0
[Ac trans]
+15.5 +9.8 69 +15 +15 тепло 1012.7 992.5
00 14.09 Ю 3 10 км 9/0
[Ac trans]
+14.5 +9.7 73 +14 +14 тепло 1010.0 989.8
03 14.09 ЮЗ 6
{11}
10 км слаб. ливневой дождь 10/8 700 м
[Cb cap Ac und]
+14.6 +10.4 76 +13 +13 тепло 1008.1 987.9 +14.1 0.0
06 14.09 З 6-10
{10}
10 км {ливн. осадки} 8/5 600 м
[Sc Ci fib]
+14.1 +8.1 67 +12 +13 тепло 1008.6 988.3 +13.7
09 14.09 З 5
{13}
10 км в посл. час ливневой дождь 6/6 840 м
[Cb cap]
+14.8 +7.8 63 +13 +15 тепло 1010.8 990.6
12 14.09 З 5
{11}
10 км слаб. ливневой дождь 9/6 600 м
[Cb cap Ac trans]
+12.8 +6.9 67 +11 +11 по сезону 1013.1 992.7
15 14.09 З 2 10 км {ливн. осадки} 6/6 600 м
[Sc]
+12.9 +4.4 56 +12 +12 по сезону 1013.2 992.7 +15.5 0.6
18 14.09 З 3 10 км {ливн. осадки} ясно +9.0 +4.0 71 +7 +7 по сезону 1014.5 993.7
21 14.09 ЮЗ 2 10 км ясно +6.2 +4.0 86 +4 +4 прохладно 1014.7 993.8
00 15.09 ЮЗ 3 4000 м дымка 4/0
[Ci fib]
+5.4 +3.4 87 +2 +2 прохладно 1014.5 993.5
03 15.09 ЮЗ 3 4000 м дымка 6/0
[Ci fib]
+4.7 +3.2 90 +1 +1 холодно 1014.7 993.6 +4.5
06 15.09 З 3 10 км 3/0
[Ac trans]
+8.9 +5.5 79 +6 +9 по сезону 1014.3 993.5
09 15.09 З 5 10 км 8/8 800 м
[Cb calv]
+11.6 +5.1 64 +9 +10 по сезону 1013.8 993.3
12 15.09 З 3 10 км 8/8 1000 м
[Cu med, cong Ci fib]
+12.9 +4.0 55 +12 +12 по сезону 1012.6 992.2
15 15.09 ЮЗ 3 10 км 10/3 600 м
[Sc Ac und]
+10.6 +2.9 59 +9 +9 по сезону 1011.0 990.4 +13.0
18 15.09 ЮЗ 2 10 км 10/8 1200 м
[Sc Ac und]
+9.7 +3.6 66 +8 +8 по сезону 1008.8 988.2
21 15.09 Ю 4 4000 м слаб. ливневой дождь 10/8 480 м
[Cb cap Ac und]
+7.5 +6.1 91 +4 +4 прохладно 1004.6 983.9
00 16.09 ЮЗ 5
{10}
4000 м слаб. ливневой дождь 10/10 240 м
[Cb cap]
+8.6 +7.2 91 +5 +5 по сезону 1000.7 980.2
03 16.09 ЮЗ 6-10
{10}
4000 м слаб. ливневой дождь 10/10 180 м
[Cb cap]
+9.2 +7.9 92 +5 +5 по сезону 998.2 977.8 +7.3 5
06 16.09 ЮЗ 5
{10}
4000 м в посл. час ливневой дождь 10/10 180 м
[Cb calv]
+9.9 +8.4 90 +7 +7 по сезону 996.7 976.4
09 16.09 ЮЗ 5
{10}
10 км в посл. час ливневой дождь 9/9 400 м
[Cb calv]
+11.8 +9.1 84 +9 +10 по сезону 995.7 975.6
12 16.09 З 5 10 км {ливн. осадки} 9/9 600 м
[Cb calv]
+13.9 +5.8 58 +12 +12 по сезону 995.0 974.9
15 16.09 ЮЗ 3
{14}
10 км {ливн. осадки} 6/6 600 м
[Cb calv]
+11.6 +7.7 77 +10 +10 по сезону 996.2 976.0 +13.9 1
18 16.09 ЮЗ 4 10 км {ливн. осадки} 6/6 600 м
[Cb calv]
+10.0 +6.7 80 +7 +7 по сезону 996.5 976.2
21 16.09 ЮЗ 6 10 км 8/8 600 м
[Sc]
+9.1 +6.8 86 +5 +5 по сезону 995.5 975.1
00 17.09 ЮЗ 5 10 км 10/10 840 м
[Sc]
+9.4 +6.9 84 +6 +6 по сезону 994.9 974.6
03 17.09 ЮЗ 5 10 км 10/10 360 м
[Sc]
+8.7 +6.3 85 +5 +5 по сезону 995.2 974.8 +8.7 0.0
06 17.09 ЮЗ 5 10 км 9/9 630 м
[Sc]
+10.0 +6.2 77 +7 +7 по сезону 995.1 974.9 +8.6
09 17.09 ЮЗ 5
{11}
10 км в посл. час ливневой дождь 8/8 600 м
[Cb cap]
+11.4 +8.0 80 +9 +9 по сезону 995.2 975.0
12 17.09 ЮЗ 6
{13}
10 км {ливн. осадки} 8/8 600 м
[Cb cap]
+12.6 +6.0 64 +10 +11 прохладно 995.4 975.3
15 17.09 ЮЗ 3
{11}
10 км в посл. час ливневой дождь 8/8 600 м
[Cb cap]
+8.4 +6.5 88 +6 +6 прохладно 996.8 976.4 +12.8 4
18 17.09 ЮЗ 4 10 км {ливн. осадки} 6/6 600 м
[Cb cap]
+8.0 +6.1 88 +5 +5 прохладно 997.6 977.1
21 17.09 ЮЗ 3 10 км 6/6 600 м
[Sc]
+7.8 +6.1 89 +5 +5 по сезону 997.4 976.9
00 18.09 З 4 10 км 6/6 600 м
[Sc]
+7.1 +5.1 87 +4 +4 по сезону 997.9 977.3
03 18.09 З 4 10 км 10/8 360 м
[Sc Ac As]
+6.5 +4.1 85 +3 +3 прохладно 998.4 977.8 +6.5 0.0
06 18.09 ЮЗ 3 10 км 10/8 240 м
[Sc Ac und]
+8.1 +5.6 84 +5 +6 по сезону 998.4 977.9 +6.5
09 18.09 ЮЗ 4 10 км 9/8 600 м
[Cb calv Ac trans]
+11.4 +5.3 66 +9 +10 по сезону 998.2 977.9
12 18.09 Ю 3 10 км в посл. час ливневой дождь 8/8 700 м
[Cb calv]
+11.5 +5.5 67 +10 +11 прохладно 997.6 977.4
15 18.09 ЮЗ 5 10 км слаб. ливневой дождь 9/9 480 м
[Cb calv]
+8.7 +6.3 85 +5 +5 холодно 997.9 977.5 +12.7 2
18 18.09 З 1 4000 м дымка {ливн. осадки} 4/4 600 м
[Sc]
+5.3 +4.4 94 +4 +4 прохладно 998.0 977.3
21 18.09 СЗ 2 4000 м дымка 8/3 600 м
[Sc Ac trans]
+5.8 +4.9 94 +3 +3 прохладно 998.1 977.5
00 19.09 СЗ 2 4000 м дымка 9/3 600 м
[Sc Ac trans]
+6.1 +4.7 91 +4 +4 по сезону 999.3 978.7
03 19.09 СЗ 3 4000 м дымка 10/8 240 м
[Sc Ac und]
+6.1 +5.1 93 +3 +3 прохладно 1001.3 980.6 +4.5 0.5
06 19.09 СЗ 3 10 км {ливн. осадки} 9/9 330 м
[Sc]
+8.1 +5.6 84 +5 +6 по сезону 1003.9 983.3
09 19.09 СЗ 3 10 км {ливн. осадки} 9/9 600 м
[Sc]
+8.9 +4.3 73 +7 +7 прохладно 1006.6 986.0
12 19.09 СЗ 4 10 км слаб. ливневой дождь 9/9 600 м
[Cb cap]
+8.5 +5.5 81 +5 +6 холодно 1008.5 987.8
15 19.09 З 1 10 км {ливн. осадки} 4/4 600 м
[Sc]
+7.5 +4.3 80 +7 +7 прохладно 1010.0 989.2 +11.9 0.9
18 19.09 З 1 4000 м дымка {ливн. осадки} 4/0
[Ac trans]
+4.5 +3.3 92 +3 +3 прохладно 1011.6 990.6
21 19.09 штиль 0 4000 м дымка 10/6 840 м
[Sc Ac und]
+5.5 +4.5 93 +4 +4 прохладно 1011.8 990.8
00 20.09 С 1 4000 м дымка 10/6 800 м
[Sc Ac und]
+5.1 +4.2 94 +4 +4 по сезону 1012.2 991.2
03 20.09 С 1 4000 м в посл. час ливневой дождь 10/6 420 м
[Cb cap Ac und]
+5.1 +4.1 93 +4 +4 по сезону 1012.2 991.2 +4.5 0.0
06 20.09 СЗ 1 10 км {ливн. осадки} 9/6 240 м
[St Ac trans]
+6.6 +4.6 87 +6 +6 по сезону 1012.6 991.7
09 20.09 З 1 10 км 9/6 660 м
[Sc Ac trans]
+9.4 +1.6 58 +9 +11 по сезону 1012.5 991.8

 

Местоположение метеостанции Владимир (Владимирская область, Россия): широта 56.12 долгота 40.35 высота над уровнем моря 172 м.

В архиве по умолчанию представлена погода в Владимире за последнюю неделю. Архивные данные за месяц целиком и за предыдущие месяцы, начиная с января 2011 года, Вы можете получить, выбрав интересующий диапазон дат из раскрывающегося списка и нажав кнопку "Ввод!".


*Определитесь, кто Вы:
робот инопланетянин человек

Внимание! Время в таблицах - всемирное. Для получения местного времени необходимо прибавить поправку, которая равна 3 ч.

Смотрите также архив погоды в соседних городах и на ближайших метеорологических станциях:

Погода в Суздале (Владимирская область, Россия) (34 км)
Погода в Юрьев-Польском (Владимирская область, Россия) (58 км)
Погода в Петушках (Владимирская область, Россия) (59 км)
Погода в Гусь-Хрустальный (Владимирская область, Россия) (61 км)
Погода в Черустях (Московская область, Россия) (67 км)
Погода в Коврове (Владимирская область, Россия) (67 км)
Погода в Тейково (Ивановская область, Россия) (82 км)
Погода в Иванове (Ивановская область, Россия) (100 км)
Погода в Александрове (Владимирская область, Россия) (104 км)
Погода в Шуе (Ивановская область, Россия) (104 км)

Пояснения к столбцам:

Ветер - указаны скорость ветра в м/с - средняя за 10 мин, порывы в срок и между сроками (в фигурных скобках) и направление, откуда дует ветер: С - северный, СВ - северо-восточный, В - восточный, ЮВ - юго-восточный, Ю - южный, ЮЗ - юго-западный, З - западный, СЗ - северо-западный.
Видимость - горизонтальная дальность видимости в метрах или километрах. При видимости от 1 до 10 км при отсутствии осадков обычно наблюдается дымка, при ухудшении видимости до 1 км и менее - туман. В сухую погоду видимость может ухудшаться дымом, пылью или мглою.
Явления - указаны атмосферные явления, наблюдавшиеся в срок или в последний час перед сроком; фигурными скобками обозначены явления, наблюдавшиеся между сроками (за 1-3 часа до срока); квадратными скобками обозначены град или гололедные отложения с указанием их диаметра в мм.
Облачность - указаны через наклонную черту общая и нижняя облачность в баллах и высота нижней границы облаков в метрах; квадратными скобками обозначены формы облаков: Ci - перистые, Cs - перисто-слоистые, Cc - перисто-кучевые, Ac - высококучевые, As - высокослоистые, Sc - слоисто-кучевые, Ns - слоисто-дождевые, Cu - кучевые, Cb - кучево-дождевые. Подробнее классификацию облаков см. в Атласе облаков (PDF).
T - Температура воздуха - температура, измеренная на высоте 2 м над землей.
Td - Температура точки росы - температура, при понижении до которой содержащийся в воздухе водяной пар достигнет насыщения.
f - Относительная влажность воздуха - влажноcть воздуха, измеренная на высоте 2 м над землей.
Te - Эффективная температура - температура, которую ощущает одетый по сезону человек в тени. Характеристика душности погоды. При расчете учитывается влияние влажности воздуха и скорости ветра на теплоощущения человека.
Tes - Эффективная температура на солнце - температура, которую ощущает человек, с поправкой на солнечный нагрев. Характеристика знойности погоды. Зависит от высоты солнца над горизонтом, облачности и скорости ветра. Ночью, в пасмурную погоду, а также при ветре 12 м/с и более поправка равна нулю.
P - Атмосферное давление - приведенное к уровню моря атмосферное давление.
Po - Атмосферное давление - измеренное на уровне метеостанции атмосферное давление.
Tmin - Минимальная температура - минимум температуры воздуха на высоте 2 м над землей.
Tmax - Максимальная температура - максимум температуры воздуха на высоте 2 м над землей.
R - Количество осадков - Количество выпавших осадков за период времени, мм. При наведении курсора мыши на число - период времени, за который выпало указанное количество осадков.
R24 - Количество осадков - Количество выпавших осадков за 24 часа, мм.
S - Снежный покров - Высота снежного покрова, см. При наведении курсора мыши на число - состояние снежного покрова и степень покрытия местности в баллах.